Location: Vista de Oro de Placitas
(35.3023°N, 106.4714°W)
Time: 17:28:50
(UTC+00:00)

Daily predictions for brighter satellites

Satellite Brightness Start Highest point End
(mag) Time Altitude Azimuth Time Altitude Azimuth Time Altitude Azimuth
ADEOS 4.5 12:02:05 10° N 12:06:31 29° WNW 12:10:54 10° SW
USA 238 DEB 3.6 12:00:25 10° SW 12:07:00 73° WNW 12:13:50 10° NNE
USA 238 3.6 12:00:32 10° SW 12:07:07 73° WNW 12:13:57 10° NNE
Nadezhda 4 Rocket 4.0 12:01:09 10° S 12:07:24 82° W 12:13:46 10° N
CZ-2C R/B 3.2 12:04:34 10° NNW 12:08:28 28° WNW 12:12:19 10° SW
ATLAS 3B R/B 4.4 12:03:47 10° S 12:09:37 32° ESE 12:15:23 10° NE
Cosmos 2279 Rocket 4.2 12:05:33 10° NNW 12:11:27 46° W 12:17:20 10° SSW
Cosmos 2227 Rocket 2.4 12:08:09 10° SW 12:13:36 52° WNW 12:19:07 10° N
STARLINK-1032 4.4 12:10:44 10° SSW 12:14:44 51° SE 12:18:45 10° NE
Cosmos 1300 Rocket 3.8 12:10:45 10° N 12:15:05 74° E 12:19:22 10° SSE
Cosmos 389 Rocket 2.7 12:13:09 10° SSW 12:16:40 51° W 12:20:11 10° N
Meteor 1-31 Rocket 3.5 12:15:22 10° N 12:18:57 35° WNW 12:22:32 10° SW
STARLINK-1011 4.2 12:15:39 10° SSW 12:19:41 57° SE 12:23:45 10° NE
Cosmos 2219 Rocket 3.3 12:19:53 10° NW 12:23:48 20° W 12:27:42 10° SW
ALOS 2.2 12:19:40 10° N 12:24:20 72° WNW 12:28:58 10° SSW
STARLINK-1036 4.0 12:20:34 10° SW 12:24:39 64° SE 12:28:45 10° NE
ATLAS 5 CENTAUR R/B 1.9 12:18:03 10° SW 12:25:04 88° WNW 12:27:42 10° NE
STARLINK-1027 3.9 12:20:59 10° SW 12:25:12 72° SE 12:29:27 10° NE
Cosmos 1378 Rocket 4.3 12:22:40 10° S 12:26:53 58° E 12:31:08 10° NNE
STARLINK-1044 3.9 12:25:31 10° SW 12:29:38 72° SE 12:33:45 10° NE
NOSS 0 Rocket 4.3 12:24:20 10° NW 12:29:59 39° WSW 12:35:37 10° S
Cosmos 1980 3.9 12:26:03 10° NNW 12:31:30 50° WSW 12:36:55 10° S
ADEOS Rocket 4.3 12:26:23 10° SSE 12:33:56 63° ENE 12:41:34 10° N
STARLINK-1047 3.7 12:30:28 10° SW 12:34:35 81° SE 12:38:44 10° NE
Chandra Rocket (1) 3.7 12:25:25 10° WSW 12:35:25 39° S 12:39:04 10° ESE
Cosmos 1048 Rocket 4.0 12:32:04 10° NNW 12:37:22 71° WSW 12:42:41 10° S
